Previsão horária em Alibag

Hoje, 17 Janeiro, Domingo

Tempo Temperatura Precipitação Vento Pressão Humidade
00:00 +25°C° 0 mm 2 m/s 757 mmHg 61%
01:00 +25°C° 0 mm 2 m/s 756 mmHg 61%
02:00 +25°C° 0 mm 2 m/s 756 mmHg 62%
03:00 +25°C° 0 mm 2 m/s 756 mmHg 62%
04:00 +25°C° 0 mm 2 m/s 756 mmHg 63%
05:00 +24°C° 0 mm 1 m/s 756 mmHg 60%
06:00 +25°C° 0 mm 1 m/s 757 mmHg 59%
07:00 +25°C° 0 mm 1 m/s 757 mmHg 57%
08:00 +26°C° 0 mm 1 m/s 757 mmHg 56%
09:00 +28°C° 0 mm 1 m/s 758 mmHg 50%
10:00 +30°C° 0 mm 2 m/s 758 mmHg 45%
11:00 +33°C° 0 mm 1 m/s 758 mmHg 39%
12:00 +34°C° 0 mm 2 m/s 757 mmHg 39%
13:00 +34°C° 0 mm 3 m/s 756 mmHg 40%
14:00 +34°C° 0 mm 4 m/s 756 mmHg 41%
15:00 +33°C° 0 mm 4 m/s 756 mmHg 45%
16:00 +30°C° 0 mm 4 m/s 756 mmHg 50%
17:00 +29°C° 0 mm 2 m/s 756 mmHg 52%
18:00 +28°C° 0 mm 2 m/s 757 mmHg 56%
19:00 +27°C° 0 mm 2 m/s 757 mmHg 61%
20:00 +27°C° 0 mm 2 m/s 758 mmHg 65%
21:00 +26°C° 0 mm 2 m/s 758 mmHg 66%
22:00 +26°C° 0 mm 2 m/s 758 mmHg 67%
23:00 +26°C° 0 mm 2 m/s 758 mmHg 67%

Amanhã, 18 Janeiro, Segunda-feira

Tempo Temperatura Precipitação Vento Pressão Humidade
00:00 +26°C° 0 mm 2 m/s 758 mmHg 68%
01:00 +26°C° 0 mm 2 m/s 757 mmHg 69%
02:00 +26°C° 0 mm 3 m/s 757 mmHg 69%
03:00 +25°C° 0 mm 3 m/s 757 mmHg 70%
04:00 +25°C° 0 mm 3 m/s 757 mmHg 70%
05:00 +25°C° 0 mm 3 m/s 757 mmHg 70%
06:00 +26°C° 0 mm 3 m/s 758 mmHg 67%
07:00 +26°C° 0 mm 3 m/s 758 mmHg 64%
08:00 +27°C° 0 mm 3 m/s 759 mmHg 61%
09:00 +29°C° 0 mm 3 m/s 759 mmHg 54%
10:00 +30°C° 0 mm 3 m/s 759 mmHg 47%
11:00 +33°C° 0 mm 3 m/s 759 mmHg 40%
12:00 +33°C° 0 mm 3 m/s 758 mmHg 41%
13:00 +33°C° 0 mm 4 m/s 758 mmHg 42%
14:00 +33°C° 0 mm 4 m/s 757 mmHg 43%
15:00 +32°C° 0 mm 4 m/s 757 mmHg 47%
16:00 +30°C° 0 mm 4 m/s 757 mmHg 50%
17:00 +29°C° 0 mm 4 m/s 757 mmHg 54%
18:00 +29°C° 0 mm 4 m/s 757 mmHg 57%
19:00 +28°C° 0 mm 3 m/s 758 mmHg 61%
20:00 +27°C° 0 mm 3 m/s 758 mmHg 64%
21:00 +27°C° 0 mm 3 m/s 758 mmHg 64%
22:00 +26°C° 0 mm 2 m/s 758 mmHg 63%
23:00 +26°C° 0 mm 2 m/s 758 mmHg 63%

Depois de amanhã, 19 Janeiro, Terça-feira

Tempo Temperatura Precipitação Vento Pressão Humidade
00:00 +26°C° 0 mm 2 m/s 758 mmHg 63%
01:00 +26°C° 0 mm 2 m/s 757 mmHg 62%
02:00 +26°C° 0 mm 2 m/s 757 mmHg 62%
03:00 +26°C° 0 mm 3 m/s 757 mmHg 62%
04:00 +26°C° 0 mm 3 m/s 757 mmHg 62%
05:00 +25°C° 0 mm 3 m/s 757 mmHg 62%
06:00 +26°C° 0 mm 3 m/s 757 mmHg 60%
07:00 +26°C° 0 mm 3 m/s 758 mmHg 58%
08:00 +27°C° 0 mm 3 m/s 759 mmHg 56%
09:00 +29°C° 0 mm 3 m/s 759 mmHg 50%
10:00 +32°C° 0 mm 2 m/s 759 mmHg 43%
11:00 +35°C° 0 mm 2 m/s 759 mmHg 37%
12:00 +35°C° 0 mm 3 m/s 758 mmHg 36%
13:00 +35°C° 0 mm 3 m/s 758 mmHg 36%
14:00 +35°C° 0 mm 4 m/s 757 mmHg 36%
15:00 +34°C° 0 mm 4 m/s 757 mmHg 41%
16:00 +33°C° 0 mm 4 m/s 757 mmHg 45%
17:00 +30°C° 0 mm 4 m/s 757 mmHg 49%
18:00 +29°C° 0 mm 4 m/s 757 mmHg 53%
19:00 +28°C° 0 mm 3 m/s 758 mmHg 56%
20:00 +27°C° 0 mm 3 m/s 758 mmHg 60%
21:00 +27°C° 0 mm 3 m/s 758 mmHg 59%
22:00 +27°C° 0 mm 2 m/s 758 mmHg 59%
23:00 +27°C° 0 mm 2 m/s 759 mmHg 59%

20 Janeiro, Quarta-feira

Tempo Temperatura Precipitação Vento Pressão Humidade
00:00 +26°C° 0 mm 2 m/s 758 mmHg 58%
01:00 +26°C° 0 mm 2 m/s 758 mmHg 58%
02:00 +26°C° 0 mm 2 m/s 758 mmHg 58%
03:00 +26°C° 0 mm 2 m/s 758 mmHg 58%
04:00 +26°C° 0 mm 3 m/s 758 mmHg 58%
05:00 +26°C° 0 mm 4 m/s 758 mmHg 58%
06:00 +26°C° 0 mm 4 m/s 758 mmHg 56%
07:00 +27°C° 0 mm 3 m/s 759 mmHg 53%
08:00 +27°C° 0 mm 3 m/s 759 mmHg 51%
09:00 +29°C° 0 mm 3 m/s 759 mmHg 44%
10:00 +33°C° 0 mm 3 m/s 760 mmHg 37%
11:00 +35°C° 0 mm 2 m/s 760 mmHg 30%
12:00 +35°C° 0 mm 3 m/s 759 mmHg 29%
13:00 +35°C° 0 mm 3 m/s 758 mmHg 29%
14:00 +35°C° 0 mm 4 m/s 758 mmHg 28%
15:00 +34°C° 0 mm 4 m/s 757 mmHg 33%
16:00 +33°C° 0 mm 4 m/s 757 mmHg 37%
17:00 +32°C° 0 mm 4 m/s 757 mmHg 41%
18:00 +29°C° 0 mm 4 m/s 758 mmHg 45%
19:00 +28°C° 0 mm 4 m/s 759 mmHg 49%
20:00 +27°C° 0 mm 3 m/s 759 mmHg 53%
21:00 +27°C° 0 mm 3 m/s 759 mmHg 53%
22:00 +26°C° 0 mm 3 m/s 759 mmHg 54%
23:00 +26°C° 0 mm 2 m/s 759 mmHg 54%

21 Janeiro, Quinta-feira

Tempo Temperatura Precipitação Vento Pressão Humidade
00:00 +26°C° 0 mm 3 m/s 759 mmHg 54%
01:00 +26°C° 0 mm 3 m/s 759 mmHg 53%
02:00 +25°C° 0 mm 3 m/s 758 mmHg 53%
03:00 +25°C° 0 mm 3 m/s 758 mmHg 52%
04:00 +25°C° 0 mm 4 m/s 758 mmHg 52%
05:00 +23°C° 0 mm 4 m/s 758 mmHg 52%
06:00 +25°C° 0 mm 4 m/s 759 mmHg 49%
07:00 +25°C° 0 mm 4 m/s 759 mmHg 47%
08:00 +26°C° 0 mm 3 m/s 760 mmHg 44%
09:00 +28°C° 0 mm 3 m/s 760 mmHg 37%
10:00 +30°C° 0 mm 3 m/s 760 mmHg 29%
11:00 +34°C° 0 mm 3 m/s 760 mmHg 22%
12:00 +34°C° 0 mm 3 m/s 759 mmHg 22%
13:00 +34°C° 0 mm 4 m/s 759 mmHg 23%
14:00 +35°C° 0 mm 4 m/s 758 mmHg 23%
15:00 +34°C° 0 mm 4 m/s 758 mmHg 29%
16:00 +32°C° 0 mm 4 m/s 758 mmHg 35%
17:00 +30°C° 0 mm 5 m/s 758 mmHg 41%
18:00 +28°C° 0 mm 4 m/s 758 mmHg 47%
19:00 +27°C° 0 mm 4 m/s 759 mmHg 52%
20:00 +26°C° 0 mm 4 m/s 759 mmHg 58%
21:00 +25°C° 0 mm 3 m/s 759 mmHg 58%
22:00 +25°C° 0 mm 3 m/s 759 mmHg 58%
23:00 +25°C° 0 mm 3 m/s 759 mmHg 58%

22 Janeiro, Sexta-feira

Tempo Temperatura Precipitação Vento Pressão Humidade
00:00 +24°C° 0 mm 3 m/s 759 mmHg 57%
01:00 +23°C° 0 mm 4 m/s 759 mmHg 56%
02:00 +22°C° 0 mm 4 m/s 758 mmHg 55%
03:00 +22°C° 0 mm 4 m/s 758 mmHg 54%
04:00 +22°C° 0 mm 4 m/s 758 mmHg 52%
05:00 +21°C° 0 mm 3 m/s 758 mmHg 51%
06:00 +22°C° 0 mm 3 m/s 758 mmHg 47%
07:00 +22°C° 0 mm 3 m/s 759 mmHg 43%
08:00 +24°C° 0 mm 2 m/s 759 mmHg 40%
09:00 +27°C° 0 mm 2 m/s 759 mmHg 34%
10:00 +30°C° 0 mm 2 m/s 759 mmHg 27%
11:00 +35°C° 0 mm 2 m/s 759 mmHg 21%
12:00 +35°C° 0 mm 3 m/s 758 mmHg 23%
13:00 +35°C° 0 mm 4 m/s 758 mmHg 24%
14:00 +35°C° 0 mm 5 m/s 757 mmHg 26%
15:00 +34°C° 0 mm 5 m/s 757 mmHg 31%
16:00 +32°C° 0 mm 5 m/s 756 mmHg 36%
17:00 +30°C° 0 mm 5 m/s 756 mmHg 42%
18:00 +28°C° 0 mm 4 m/s 757 mmHg 48%
19:00 +27°C° 0 mm 4 m/s 757 mmHg 55%
20:00 +25°C° 0 mm 3 m/s 758 mmHg 62%
21:00 +25°C° 0 mm 3 m/s 758 mmHg 62%
22:00 +25°C° 0 mm 3 m/s 758 mmHg 62%
23:00 +24°C° 0 mm 3 m/s 758 mmHg 61%
Mostrar mais

Necessitamos do seu Consentimento

A Meteoprog e os seus Fornecedores de Serviços podem armazenar e aceder a dados pessoais como cookies, identificadores do dispositivo ou outras tecnologias semelhantes existentes no seu dispositivo e processar estes dados para personalizar conteúdos e anúncios, assim como funcionalidades nas redes sociais e análise de tráfego.

  • Armazenar e/ou aceder a informações no seu dispositivo

    Os cookies, identificadores do dispositivo ou outras informações podem ser armazenados ou acedidos no seu dispositivo, para os fins acima indicados.

  • Anúncios e conteúdos personalizados, medição de anúncios e conteúdos, dados sobre o público-alvo e desenvolvimento de produtos

    Os anúncios e os conteúdos podem ser personalizados com base num perfil. Podem ser adicionados dados adicionais para uma maior personalização dos anúncios e dos conteúdos. A eficácia dos anúncios e dos conteúdos pode ser medida. Podem ser obtidas informações sobre o público que visualizou os anúncios e os conteúdos. Estes dados podem ser usados para desenvolver ou melhorar sistemas, softwares ou a experiência do utilizador.

Ao clicar em "Eu concordo”, permitirá o uso de cookies, identificadores do dispositivo e web beacons mencionados ou outras tecnologias semelhantes. As configurações do navegador do seu dispositivo podem ser alteradas.

Para certos fins, podem ser invocados interesses legítimos ao invés de consentimento. Pode ler mais informação sobre este assunto na nossa Política de Privacidade e Cookies.